Weather past 2 weeks in Saipan, Northern Mariana Islands

Now
82 °F

Passing clouds.


Feels Like: 88 °F
Forecast: 83 / 85 °F
Wind: 18 mph from East

Location: Saipan International Airport

Current Time: Dec 20, 2014 at 7:46:55 PM

Latest Report: Dec 20, 2014 at 6:54 PM


Visibility: 10 mi

Pressure: 29.96 "Hg

Humidity: 77%

Dew point: 74 °F

Location of SaipanLocation

Historic Weather in Saipan — Graph

°F

Saipan temperature yesterday

Maximum temperature yesterday: 87 °F (at 12:54 PM)
Minimum temperature yesterday: 79 °F (at 12:54 AM)
Average temperature yesterday: 82 °F

Past Weeks' High & Low Weather Summary

 TemperatureHumidityPressure
High88 °F (Dec 13, 12:54 PM)100% (Dec 14, 7:18 PM)30.07 "Hg (Dec 14, 7:18 PM)
Low75 °F (Dec 6, 4:54 AM)59% (Dec 19, 12:54 PM)29.84 "Hg (Dec 6, 2:54 PM)
Average82 °F80%29.97 "Hg
* Reported Dec 5 6:54 PM — Dec 20 6:54 PM, Saipan, Weather by CustomWeather, © 2014

Note: Actual official high and low records may vary slightly from our data, if they occured in-between our weather recording intervals... More about our weather records

Advertising

Saipan weather history for previous 24 hours

 ConditionsComfort  
Time TempWeatherWind HumidityBarometerVisibility
6:54 PM
Dec 20
82 °FPassing clouds.18 mph77%29.96 "Hg10 mi
5:54 PM82 °FPartly cloudy.18 mph79%29.94 "Hg10 mi
4:54 PM83 °FScattered clouds.15 mph74%29.93 "Hg10 mi
4:11 PM84 °FScattered clouds.21 mph74%29.86 "Hg10 mi
3:54 PM84 °FPartly sunny.16 mph74%29.92 "Hg10 mi
2:54 PM84 °FScattered clouds.20 mph74%29.92 "Hg10 mi
1:54 PM87 °FScattered clouds.22 mph65%29.93 "Hg10 mi
12:54 PM87 °FScattered clouds.22 mph69%29.95 "Hg10 mi
11:54 AM87 °FScattered clouds.21 mph67%29.98 "Hg10 mi
10:54 AM85 °FScattered clouds.18 mph75%30.00 "Hg10 mi
9:54 AM84 °FOvercast.21 mph72%30.02 "Hg10 mi
8:54 AM84 °FScattered clouds.25 mph72%30.02 "Hg10 mi
7:54 AM82 °FScattered clouds.23 mph74%30.01 "Hg10 mi
6:54 AM81 °FScattered clouds.24 mph79%29.98 "Hg10 mi
5:54 AM80 °FPassing clouds.23 mph76%29.96 "Hg10 mi
4:54 AM80 °FPassing clouds.24 mph79%29.95 "Hg10 mi
3:54 AM80 °FMostly cloudy.23 mph81%29.95 "Hg10 mi
2:54 AM77 °FPassing clouds.23 mph88%29.97 "Hg10 mi
1:54 AM81 °FPassing clouds.22 mph77%29.99 "Hg10 mi
12:54 AM81 °FPassing clouds.23 mph77%30.00 "Hg10 mi
11:54 PM
Dec 19
81 °FPartly cloudy.22 mph79%30.01 "Hg10 mi
10:54 PM81 °FPartly cloudy.24 mph79%30.02 "Hg10 mi
9:54 PM81 °FPassing clouds.20 mph82%30.03 "Hg10 mi
9:01 PM82 °FPartly cloudy.22 mph74%29.97 "Hg10 mi
7:54 PM82 °FPassing clouds.24 mph77%30.03 "Hg10 mi
Weather by CustomWeather, © 2014

See weather overviewHow to use our weather pages